Regional Weather Roundup
Issued by NWS Newport/Morehead, NC

Current Version | Previous Version | Graphics & Text | Print | Product List | Glossary Off
Versions: 1 2 3 4 5 6 7 8 9 10 11 12 13 14 15 16 17 18 19 20 21 22 23 24 25 26 27 28 29 30 31 32 33 34 35 36 37 38 39 40 41 42 43 44 45 46 47 48 49 50

000
ASUS42 KMHX 200913
RWRMHX
WEATHER ROUNDUP FOR EASTERN NORTH CAROLINA
NATIONAL WEATHER SERVICE NEWPORT/MOREHEAD CITY NC
400 AM EST FRI JAN 20 2017

NOTE: "FAIR" INDICATES FEW OR NO CLOUDS BELOW 12,000 FEET
WITH NO SIGNIFICANT WEATHER AND/OR OBSTRUCTIONS TO VISIBILITY

NCZ015>017-031-032-045>047-102-103-201000-
NORTH COAST

CITY           SKY/WX    TMP DP  RH WIND       PRES   REMARKS
EDENTON        CLOUDY    46  42  88 CALM      30.01F
ELIZABETH CITY CLOUDY    45  43  93 CALM      30.00F
KITTY HAWK     NOT AVBL
MANTEO         CLOUDY    42  42 100 CALM      30.01F

$$

NCZ045>047-081-094-103-104-201000-
CENTRAL COAST

CITY           SKY/WX    TMP DP  RH WIND       PRES   REMARKS
FRISCO         CLOUDY    48  44  86 NE3       30.01F

$$

NCZ095-097-098-100-101-201000-
SOUTHERN COAST

CITY           SKY/WX    TMP DP  RH WIND       PRES   REMARKS
BEAUFORT       MOCLDY    47  45  93 NE5       29.98F
CEDAR ISLAND   NOT AVBL
JACKSONVILLE   CLOUDY    46  45  96 CALM      29.96F
PINEY ISLAND   CLOUDY   N/A N/A N/A NE7       29.98F
WILMINGTON     CLOUDY    51  49  92 E5        29.95F


$$

NCZ011>013-027>030-043-044-078>080-089-090>093-098-201000-
COASTAL PLAIN

CITY           SKY/WX    TMP DP  RH WIND       PRES   REMARKS
AHOSKIE          N/A     42  41  97 CALM      29.99F FOG
CLINTON        MOCLDY    48  46  94 CALM      29.97F
ELIZABETHTOWN  CLOUDY    46  45  97 CALM      29.94F
GOLDSBORO      CLOUDY    45  45 100 E5        29.95F
GREENVILLE     CLOUDY    45  45 100 CALM      30.00S
HAVELOCK       CLOUDY    44  41  89 NE3       29.98F
KENANSVILLE    CLOUDY    41  41 100 CALM      29.96F FOG
KINSTON        CLOUDY    46  44  90 CALM      29.97F
NEW BERN       PTCLDY    42  41  96 CALM      30.00F FOG
RICHLANDS      CLOUDY    44  43  96 CALM      29.97F
ROCKY MOUNT    CLOUDY    45  44  97 CALM      29.96F
WASHINGTON     CLOUDY    43  42  96 E3          N/A
WHITEVILLE     CLOUDY    48  46  91 CALM      29.93F

$$

AMZ130-135-150-152-154-156-158-170-250-252-270-ANZ085-086-088-633-658-670-201000-
MARINE OBSERVATIONS

STATION/POSITION TIME  TEMP    WIND        PRES    WAVE   SWELL
                       AIR SEA DIR/SP/G            HT/PER HT/PER
                 (UTC) (F)     (DEG/KT/KT) (MB)    (FT/S) (FT/S)
CHESAPEAKE LIGHT NOT AVBL
64 E VA BEACH    0850   51 56   40/  2/  4 1015.8    5/12   5/12
DUCK             0848   45 45   90/  4/  4 1015.3
2 E DUCK         0900      45                N/A     4/10   2/11
OREGON INLET     0842   45 49   CALM  /  1 1016.0
13E OREGON INLT  NOT AVBL
HATTERAS CG      0848   48 55   80/  2/  4 1015.8
DIAMOND BUOY     0850   58 76   40/  2/  8 1016.2    6/11   5/11
CAPE LOOKOUT     0900   53      10/  5/  5 1014.7
BEAUFORT LAB     0848   49 51   20/  4/  5 1014.1
30 SE NEW RVR IN 0808   61 64   80/  6/  8 1015.3
30 SE NEW RVR IN 0813      63                N/A     3/ 8
27 SE WRIGHTSVLE 0808   64 71   90/  8/ 12 1014.4
5 SE WRIGHTSVLE  0808   57      60/  4/  8 1014.7
225 S CAPE HAT   0850   67 71   CALM  /  2 1015.5    5/ 9   5/ 9
41 SE CHARLESTON 0850   69 72   60/  2/  2 1012.8    3/10   2/10

$$



USA.gov is the U.S. government's official web portal to all federal, state and local government web resources and services.